Карточка аэропорта UIUU

Внимание!
Информация на этой странице в стадии наполнения.
Если вы не увидели какой-то информации, или заметили неточность - пожалуйста сообщите нам!
Спасибо!
Команда RU-STAFF
Название аэропортаМухино
Название аэропорта (англ.)Mukhino
Превышение1699 ft. (517.9 m.)
Координаты51°48.45', 107°26.4'
Высота перехода1800m
Эшелон переходаFL090
Коды ответчика2701-2717
Зона ОрВДИркутск РПИ (UIII)
Данные METARUIUU 221200Z 03006MPS 9999 NSC 17/M05 Q1013 R26/CLRD60 NOSIG RMK QFE716/0954
Проноз погоды (TAF)UIUU 221100Z 2212/2312 33005G10MPS 9999 SCT040CB TEMPO 2212/2224 03005G10MPS TEMPO 2300/2312 08003G08MPS BKN014CB
NOTAMshow/hide NOTAM
AWOS   TABLE

Информация о ВПП

ВПП Длина ВПП (м.) Покрытие Курс ВПП Частота ILS
263400Цементобетон263110.3
083400Цементобетон83111.3

Диспетчерские позиции

Позывной Наименование органа УВД Частота
UIUU_TWRУлан-Удэ-Вышка118.200
UIUU_APPУлан-Удэ-Подход129.300



Спутниковое изображение